This is the latest recevied weather packets stored in our database for station/object K5RWS. If no packets are shown the sender has not sent any weather packets the latest 10 day(s).
| Time | Temp. | Humidity | Pressure | Rain* | Wind** | Luminosity | Snow |
|---|---|---|---|---|---|---|---|
| 1778032007 | 13.89° C | 50% | 1012.5 hPa | 0 mm | - | 2 W/m² | - |
| 1778031702 | 13.89° C | 49% | 1012.6 hPa | 0 mm | - | 4 W/m² | - |
| 1778031400 | 15° C | 48% | 1012.3 hPa | 0 mm | - | 4 W/m² | - |
| 1778031097 | 16.11° C | 41% | 1012.1 hPa | 0 mm | - | 4 W/m² | - |
| 1778030793 | 16.11° C | 41% | 1012.1 hPa | 0 mm | - | 5 W/m² | - |
| 1778030490 | 16.11° C | 41% | 1012 hPa | 0 mm | - | 8 W/m² | - |
| 1778030188 | 16.11° C | 40% | 1012 hPa | 0 mm | - | 12 W/m² | - |
| 1778029883 | 16.11° C | 40% | 1011.9 hPa | 0 mm | - | 16 W/m² | - |
| 1778029583 | 16.67° C | 40% | 1011.9 hPa | 0 mm | - | 28 W/m² | - |
| 1778029279 | 16.67° C | 39% | 1011.9 hPa | 0 mm | - | 30 W/m² | - |
| 1778028976 | 16.67° C | 39% | 1012 hPa | 0 mm | - | 41 W/m² | - |
| 1778028673 | 17.22° C | 38% | 1012 hPa | 0 mm | - | 56 W/m² | - |
| 1778028369 | 17.22° C | 37% | 1011.9 hPa | 0 mm | - | 70 W/m² | - |
| 1778028066 | 17.78° C | 37% | 1011.9 hPa | 0 mm | - | 71 W/m² | - |
| 1778027762 | 18.33° C | 38% | 1012 hPa | 0 mm | - | 106 W/m² | - |
| 1778027459 | 17.78° C | 38% | 1012 hPa | 0 mm | - | 126 W/m² | - |
| 1778027155 | 17.78° C | 38% | 1011.6 hPa | 0 mm | - | 180 W/m² | - |
| 1778026851 | 17.78° C | 38% | 1011.9 hPa | 0 mm | - | 141 W/m² | - |
| 1778026547 | 17.78° C | 39% | 1012 hPa | 0 mm | - | 154 W/m² | - |
| 1778026244 | 17.78° C | 39% | 1011.8 hPa | 0 mm | - | 135 W/m² | - |
| 1778025942 | 17.78° C | 39% | 1011.8 hPa | 0 mm | - | 151 W/m² | - |
| 1778025639 | 17.78° C | 38% | 1011.6 hPa | 0 mm | - | 186 W/m² | - |
| 1778025337 | 17.78° C | 38% | 1011.8 hPa | 0 mm | - | 221 W/m² | - |
| 1778025033 | 17.78° C | 39% | 1011.9 hPa | 0 mm | - | 216 W/m² | - |
| 1778024731 | 17.22° C | 40% | 1011.5 hPa | 0 mm | - | 220 W/m² | - |
* Rain latest hour (hover to see other rain measurements)
** Current wind speed in m/s (hover to see current wind gust speed)